Eastman, GA

10:01 PM EDT on July 25, 2017 (GMT -0400)
Heart Of Georgia Regional

Weather History for KEZM - October, 2013

Change the Weather History Date:

Thursday, October 24, 2013

  Actual Average Record
Temperature  
Mean Temperature 56 °F -  
Max Temperature 73 °F 76 °F 84 °F (2016)
Min Temperature 39 °F 49 °F 39 °F (2013)
Degree Days  
Heating Degree Days 9    
Growing Degree Days 6 (Base 50)    
Moisture  
Dew Point 44 °F    
Average Humidity 75    
Maximum Humidity 100    
Minimum Humidity 28    
Precipitation  
Precipitation 0.00 in - - ()
Sea Level Pressure  
Sea Level Pressure 30.18 in    
Wind  
Wind Speed 1 mph (WNW)    
Max Wind Speed 6 mph    
Max Gust Speed -    
Visibility 8 miles    
Events Fog    
Averages and records for this station are not official NWS values.
T = Trace of Precipitation, MM = Missing Value Source: NWS Daily Summary

Daily Weather History Graph

Daily Weather History Graph

Search for Another Location

Airport or City:

Trip Planner

Search our weather history database for the weather conditions in past years. The results will help you decide how hot, cold, wet, or windy it might be!

Date:

Astronomy

Oct. 24, 2013 Rise Set
Actual Time 7:43 AM EDT 6:49 PM EDT
Civil Twilight 7:18 AM EDT 7:14 PM EDT
Nautical Twilight 6:49 AM EDT 7:43 PM EDT
Astronomical Twilight 6:20 AM EDT 8:11 PM EDT
Moon 11:20 PM EDT (10/24) 12:35 PM EDT (10/24)
Length of Visible Light 11h 56m
Length of Day
11h 06m
Waning Gibbous, 71% of the Moon is Illuminated
Oct 24
Waning Gibbous
Oct 26
Last Quarter
Nov 3
New
Nov 10
First Quarter
Nov 17
Full

Hourly Weather History & Observations

Time (EDT) Temp. Dew Point Humidity Pressure Visibility Wind Dir Wind Speed Gust Speed Precip Events Conditions
12:15 AM 46.4 °F 44.2 °F 92% 30.12 in 10.0 mi Calm Calm - N/A   Clear
12:35 AM 46.9 °F 43.7 °F 88% 30.11 in 10.0 mi Calm Calm - N/A   Clear
12:55 AM 46.6 °F 44.2 °F 92% 30.12 in 10.0 mi Calm Calm - N/A   Clear
1:15 AM 45.9 °F 44.6 °F 95% 30.12 in 10.0 mi Calm Calm - N/A   Clear
1:35 AM 44.8 °F 44.1 °F 97% 30.13 in 10.0 mi Calm Calm - N/A   Clear
1:55 AM 45.1 °F 44.2 °F 97% 30.13 in 10.0 mi Calm Calm - N/A   Clear
2:15 AM 44.6 °F 44.4 °F 99% 30.13 in 10.0 mi Calm Calm - N/A   Clear
2:35 AM 45.0 °F 43.9 °F 96% 30.12 in 10.0 mi Calm Calm - N/A   Clear
2:55 AM 43.0 °F 42.8 °F 99% 30.12 in 10.0 mi Calm Calm - N/A   Clear
3:15 AM 42.1 °F 42.1 °F 100% 30.13 in 10.0 mi Calm Calm - N/A   Clear
3:35 AM 42.3 °F 42.3 °F 100% 30.14 in 4.0 mi Calm Calm - N/A   Clear
3:55 AM 42.4 °F 42.4 °F 100% 30.14 in 10.0 mi Calm Calm - N/A   Clear
4:15 AM 41.9 °F 41.9 °F 100% 30.14 in 1.8 mi Calm Calm - N/A   Mist
4:35 AM 41.9 °F 41.9 °F 100% 30.15 in 10.0 mi Calm Calm - N/A   Clear
4:55 AM 41.5 °F 41.5 °F 100% 30.15 in 1.5 mi Calm Calm - N/A   Mist
5:15 AM 41.9 °F 41.9 °F 100% 30.17 in 3.0 mi Calm Calm - N/A   Clear
5:35 AM 42.1 °F 42.1 °F 100% 30.18 in 1.2 mi Calm Calm - N/A   Mist
5:55 AM 41.9 °F 41.9 °F 100% 30.18 in 0.8 mi Calm Calm - N/A   Mist
6:15 AM 40.6 °F 40.6 °F 100% 30.19 in 1.5 mi Calm Calm - N/A   Mist
6:35 AM 41.4 °F 41.4 °F 100% 30.20 in 7.0 mi Calm Calm - N/A   Clear
6:55 AM 40.1 °F 40.1 °F 100% 30.20 in 1.2 mi Calm Calm - N/A   Mist
7:15 AM 40.1 °F 40.1 °F 100% 30.21 in 0.5 mi Calm Calm - N/A Fog Fog
7:35 AM 39.9 °F 39.9 °F 100% 30.22 in 1.5 mi Calm Calm - N/A   Mist
7:55 AM 39.4 °F 39.4 °F 100% 30.22 in 0.8 mi Calm Calm - N/A   Mist
8:15 AM 39.9 °F 39.9 °F 100% 30.22 in 5.0 mi Calm Calm - N/A   Clear
8:35 AM 41.0 °F 41.0 °F 100% 30.23 in 10.0 mi Calm Calm - N/A   Clear
8:55 AM 44.1 °F 44.1 °F 100% 30.24 in 10.0 mi Calm Calm - N/A   Clear
9:15 AM 47.8 °F 45.5 °F 92% 30.25 in 10.0 mi Calm Calm - N/A   Clear
9:35 AM 50.0 °F 45.5 °F 85% 30.25 in 10.0 mi Calm Calm - N/A   Clear
9:55 AM 53.1 °F 45.1 °F 74% 30.25 in 10.0 mi Calm Calm - N/A   Clear
10:15 AM 54.7 °F 44.2 °F 68% 30.26 in 10.0 mi NW 3.5 mph - N/A   Clear
10:35 AM 57.2 °F 44.1 °F 62% 30.26 in 10.0 mi Calm Calm - N/A   Clear
10:55 AM 58.3 °F 43.9 °F 59% 30.26 in 10.0 mi Calm Calm - N/A   Clear
11:15 AM 59.9 °F 42.8 °F 53% 30.26 in 10.0 mi North 4.6 mph - N/A   Clear
11:35 AM 61.3 °F 40.8 °F 47% 30.26 in 10.0 mi North 3.5 mph - N/A   Clear
11:55 AM 61.7 °F 39.6 °F 44% 30.25 in 10.0 mi Calm Calm - N/A   Clear
12:15 PM 63.3 °F 38.8 °F 40% 30.24 in 10.0 mi NNW 3.5 mph - N/A   Clear
12:35 PM 64.2 °F 37.4 °F 37% 30.23 in 10.0 mi Calm Calm - N/A   Clear
12:55 PM 66.6 °F 36.7 °F 33% 30.22 in 10.0 mi ENE 3.5 mph - N/A   Clear
1:15 PM 66.0 °F 36.7 °F 34% 30.21 in 10.0 mi Calm Calm - N/A   Clear
1:35 PM 68.4 °F 37.8 °F 33% 30.20 in 10.0 mi West 5.8 mph - N/A   Clear
1:55 PM 68.9 °F 37.4 °F 32% 30.19 in 10.0 mi Calm Calm - N/A   Clear
2:15 PM 69.8 °F 38.3 °F 32% 30.18 in 10.0 mi South 3.5 mph - N/A   Clear
2:35 PM 70.2 °F 37.8 °F 31% 30.16 in 10.0 mi South 4.6 mph - N/A   Clear
2:55 PM 70.7 °F 38.3 °F 31% 30.16 in 10.0 mi Calm Calm - N/A   Clear
3:15 PM 72.3 °F 38.8 °F 30% 30.16 in 10.0 mi Calm Calm - N/A   Clear
3:35 PM 72.3 °F 38.1 °F 29% 30.16 in 10.0 mi NW 3.5 mph - N/A   Clear
3:55 PM 73.0 °F 37.9 °F 28% 30.15 in 10.0 mi West 3.5 mph - N/A   Clear
4:15 PM 73.2 °F 38.5 °F 28% 30.15 in 10.0 mi West 5.8 mph - N/A   Clear
4:35 PM 73.4 °F 39.0 °F 29% 30.15 in 10.0 mi West 3.5 mph - N/A   Clear
4:55 PM 73.4 °F 40.5 °F 30% 30.14 in 10.0 mi Calm Calm - N/A   Clear
5:15 PM 72.9 °F 40.6 °F 31% 30.14 in 10.0 mi SW 4.6 mph - N/A   Clear
5:35 PM 72.5 °F 41.5 °F 33% 30.14 in 10.0 mi SSW 3.5 mph - N/A   Clear
5:55 PM 71.8 °F 41.9 °F 34% 30.14 in 10.0 mi Calm Calm - N/A   Clear
6:15 PM 70.5 °F 44.6 °F 39% 30.15 in 10.0 mi Calm Calm - N/A   Clear
6:35 PM 66.6 °F 50.0 °F 55% 30.15 in 10.0 mi Calm Calm - N/A   Clear
6:55 PM 63.3 °F 51.3 °F 65% 30.15 in 10.0 mi Calm Calm - N/A   Clear
7:15 PM 59.7 °F 52.0 °F 76% 30.16 in 10.0 mi Calm Calm - N/A   Clear
7:35 PM 58.3 °F 52.0 °F 80% 30.17 in 10.0 mi Calm Calm - N/A   Clear
7:55 PM 56.5 °F 51.4 °F 83% 30.17 in 10.0 mi Calm Calm - N/A   Clear
8:15 PM 55.2 °F 52.2 °F 89% 30.18 in 10.0 mi Calm Calm - N/A   Clear
8:35 PM 55.0 °F 51.4 °F 88% 30.18 in 10.0 mi Calm Calm - N/A   Clear
8:55 PM 53.6 °F 52.3 °F 95% 30.18 in 10.0 mi Calm Calm - N/A   Clear
9:15 PM 53.4 °F 51.1 °F 92% 30.18 in 10.0 mi Calm Calm - N/A   Clear
9:35 PM 52.2 °F 51.4 °F 97% 30.19 in 10.0 mi Calm Calm - N/A   Clear
9:55 PM 51.4 °F 51.1 °F 99% 30.19 in 10.0 mi Calm Calm - N/A   Clear
10:15 PM 50.9 °F 50.9 °F 100% 30.19 in 7.0 mi Calm Calm - N/A   Clear
10:35 PM 50.9 °F 50.7 °F 99% 30.20 in 10.0 mi Calm Calm - N/A   Clear
10:55 PM 50.5 °F 50.5 °F 100% 30.20 in 10.0 mi Calm Calm - N/A   Clear
11:15 PM 49.5 °F 49.5 °F 100% 30.21 in 7.0 mi Calm Calm - N/A   Clear
11:35 PM 49.3 °F 49.3 °F 100% 30.21 in 7.0 mi Calm Calm - N/A   Clear
11:55 PM 48.0 °F 48.0 °F 100% 30.22 in 3.0 mi Calm Calm - N/A   Clear